Regional Weather Roundup
Issued by NWS

Home | Current Version | Previous Version | Text Only | Print | Product List | Glossary Off
Versions: 1 2 3 4 5 6 7 8 9 10 11 12 13 14 15 16 17 18 19 20 21 22 23 24 25 26 27 28 29 30 31 32 33 34 35 36 37 38 39 40 41 42 43 44 45 46 47 48 49 50

000
ASUS43 KMPX 251010
RWRMN
WEATHER ROUNDUP FOR MINNESOTA
NATIONAL WEATHER SERVICE TWIN CITIES/CHANHASSEN MN
500 AM CDT SAT MAR 25 2017


NOTE: "FAIR" INDICATES FEW OR NO CLOUDS BELOW 12,000 FEET WITH NO
SIGNIFICANT WEATHER AND/OR OBSTRUCTIONS TO VISIBILITY. N/A MEANS
CURRENT SKY AND/OR WEATHER CONDITIONS ARE NOT AVAILABLE.

MNZ060>063-068>070-251100-
   Twin Cities Metro

CITY           SKY/WX    TMP DP  RH WIND       PRES   REMARKS
TWIN CITIES    CLOUDY    37  30  75 NE8       30.16S
ST PAUL        CLOUDY    37  32  82 NE7       30.18R
CRYSTAL        CLOUDY    36  29  75 NE12      30.16S
BLAINE         CLOUDY    37  34  87 NE8       30.17S
LAKEVILLE      CLOUDY    36  34  93 NE12G20   30.14S
EDEN PRAIRIE   CLOUDY    38  31  76 NE13G18   30.14S
SOUTH ST PAUL  CLOUDY    37  32  80 NE6       30.16S
LAKE ELMO      CLOUDY    36  32  87 NE9       30.17S
$$
MNZ001>005-007-008-013>017-022>024-027-028-251100-
   Northwest Minnesota

CITY           SKY/WX    TMP DP  RH WIND       PRES   REMARKS
BEMIDJI        CLOUDY    33  29  87 E6        30.19S WCI  27
HALLOCK        CLEAR     28  27  93 SE3       30.18F
ROSEAU         CLEAR     30  25  80 SE6       30.20F WCI  24
WARROAD        CLEAR     28  25  86 SE3       30.21F
THIEF RVR FALL CLEAR    N/A N/A N/A SE7       30.19F
CROOKSTON      CLEAR     30  28  93 SE7       30.19S WCI  23
FOSSTON        CLEAR     25  25 100 E3        30.19S
DETROIT LAKES  CLOUDY    34  32  93 SE8       30.18S WCI  27
MOORHEAD       CLEAR     28  27  93 SE5       30.19S WCI  23
PARK RAPIDS    CLOUDY    36  27  69 E7        30.18S
MAHNOMEN       FAIR      28  27  94 E6        30.18S WCI  22
$$
MNZ006-009>011-018-025>026-251100-
   North Central Minnesota

CITY           SKY/WX    TMP DP  RH WIND       PRES   REMARKS
BAUDETTE       CLEAR     27  24  89 E8        30.21F WCI  19
FLAG ISLAND    CLOUDY    28  25  86 SE7       30.22F WCI  21
INTL FALLS     CLOUDY    33  28  81 E6        30.25S WCI  28
WASKISH        MOCLDY    30  28  93 CALM      30.21F
BIG FORK       CLOUDY    34  30  86 SE3       30.23S
LONGVILLE      CLOUDY    34  30  86 CALM      30.20F
GRAND RAPIDS   CLOUDY    32  30  92 VRB3      30.24S
CRANE LAKE     CLOUDY    30  28  93 CALM      30.28S
ORR            CLOUDY    32  28  86 CALM      30.22F
COOK           CLOUDY    32  28  86 CALM      30.26S
WALKER         CLOUDY    33  30  89 CALM      30.20S
$$
MNZ012-019>021-037-251100-
   Northeast Minnesota

CITY           SKY/WX    TMP DP  RH WIND       PRES   REMARKS
DULUTH         CLOUDY    32  29  88 E10       30.22F WCI  24
ELY            CLOUDY    30  27  86 SE7       30.26S WCI  23
HIBBING        CLOUDY    31  28  89 E6        30.24S WCI  25
EVELETH        CLOUDY    32  28  85 E3        30.26S
DULUTH HARBOR  CLOUDY    36  32  87 NE13      30.26F
TWO HARBORS    CLOUDY    36  30  80 E8        30.24F
SILVER BAY     CLOUDY    34  28  80 E7        30.26S WCI  28
GRAND MARAIS     N/A     33  25  72 E16G24    30.33R WCI  23
G MARAIS ARPRT CLOUDY    27  19  74 E7        30.27S WCI  19
$$
MNZ029>031-032-039>041-046>048-054>057-064-251100-
   West Central Minnesota

CITY           SKY/WX    TMP DP  RH WIND       PRES   REMARKS
FERGUS FALLS   CLEAR     32  28  86 E5        30.21F WCI  27
WHEATON        CLOUDY    27  27 100 CALM      30.19F
MORRIS         CLOUDY    36  30  80 E13       30.15F
ALEXANDRIA     CLOUDY    33  29  85 E14       30.17F WCI  23
ELBOW LAKE     FAIR      32  30  92 SE9       30.17S WCI  24
WADENA         CLOUDY    34  28  80 E5        30.18R WCI  30
GLENWOOD       CLOUDY    34  30  86 E15       30.16F WCI  24
APPLETON       CLOUDY    36  30  80 E7        30.15F
BENSON         CLOUDY    37  30  75 SE9       30.17F
ORTONVILLE     CLOUDY    34  30  86 E7        30.15F WCI  28
MADISON        CLOUDY    37  36  93 E7        30.15F
WILLMAR        CLOUDY    36  34  93 E10       30.16F
$$
MNZ033>034-036-042>043-049>051-058-059-251100-
   Central Minnesota

CITY           SKY/WX    TMP DP  RH WIND       PRES   REMARKS
ST CLOUD       CLOUDY    34  30  85 NE7       30.18S WCI  28
SAUK CENTRE    CLOUDY    32  30  91 E10       30.18S WCI  24
PAYNESVILLE      N/A     34  31  87 E10       30.17S WCI  26
AITKIN         CLOUDY    36  28  75 NE7       30.19F
PINE RIVER     CLOUDY    34  30  86 E5        30.23F WCI  30
BRAINERD       CLOUDY    33  29  85 E5        30.20F WCI  29
STAPLES        CLOUDY    34  28  80 E6        30.18F WCI  29
LONG PRAIRIE   CLOUDY    32  30  93 NE10      30.18F WCI  24
LITTLE FALLS   CLOUDY    32  28  86 E7        30.20S WCI  26
LITCHFIELD     CLOUDY    37  34  87 NE9       30.16S
BUFFALO        CLOUDY    35  31  83 NE9       30.18R WCI  28
MAPLE LAKE     CLOUDY    36  32  86 E8        30.18R
HUTCHINSON     CLOUDY    37  33  89 NE12      30.16S
$$
MNZ037-044-045-052-053-251100-
   East Central Minnesota

CITY           SKY/WX    TMP DP  RH WIND       PRES   REMARKS
PRINCETON      CLOUDY    36  30  80 NE9       30.19S
MORA           CLOUDY    34  28  80 E6        30.22S WCI  29
CAMBRIDGE      CLOUDY    37  28  70 NE6       30.17S
RUSH CITY      CLOUDY    35  30  82 E6        30.20S WCI  30
MOOSE LAKE     CLOUDY    32  32 100 NE5       30.20F WCI  27
HINCKLEY       FAIR      32  30  93 CALM      30.21S
CLOQUET        CLOUDY    34  28  80 E7        30.22F WCI  28
MCGREGOR       CLOUDY    34  32  93 E6        30.22S WCI  29
$$
MNZ071>073-080-081-089-090-097-098-251100-
   Southwest Minnesota

CITY           SKY/WX    TMP DP  RH WIND       PRES   REMARKS
MONTEVIDEO     CLOUDY    36  32  87 E7        30.17S
GRANITE FALLS  CLOUDY    37  33  87 NE7       30.17R
CANBY          CLOUDY    35  33  91 CALM      30.16S
MARSHALL       CLOUDY    35  32  88 NE10      30.15R WCI  27
REDWOOD FALLS  CLOUDY    37  32  82 NE6       30.13S
OLIVIA         CLOUDY    36  32  87 NE8       30.14R
PIPESTONE      FOG       34  30  86 NE13G18   30.08F VSB 3/4 WCI  25
WINDOM         CLOUDY    36  34  93 N12       30.09R
WORTHINGTON    CLOUDY    34  34 100 NE17      30.08R FOG     WCI  23
JACKSON        CLOUDY    36  34  93 NE14      30.07R FOG
TRACY          CLOUDY    35  34  95 NE10      30.12S WCI  27
SLAYTON        CLOUDY    32  32  99 NE8       30.10S FOG     WCI  25
$$
MNZ065>067-074>077-082>085-091>093-251100-
   South Central Minnesota

CITY           SKY/WX    TMP DP  RH WIND       PRES   REMARKS
MANKATO        CLOUDY    37  34  89 NE17      30.10F
NEW ULM        CLOUDY    36  32  87 NE13      30.11R
ST JAMES       CLOUDY    37  34  87 N13       30.11R
FAIRMONT       CLOUDY    37  35  92 NE16      30.08R
GLENCOE        CLOUDY    37  35  92 NE5       30.14R
FARIBAULT      CLOUDY    37  34  87 N10G18    30.11F
OWATONNA       CLOUDY    37  34  87 NE13G18   30.09S
WASECA         CLOUDY    36  34  93 NE13G20   30.09S
ALBERT LEA     CLOUDY    37  36  93 NE17      30.06R FOG
$$
MNZ078>079-086>088-094>096-251100-
   Southeast Minnesota

CITY           SKY/WX    TMP DP  RH WIND       PRES   REMARKS
ROCHESTER      CLOUDY    36  35  96 NE21      30.08R
RED WING       CLOUDY    39  30  70 E8        30.14R
STANTON        CLOUDY    38  33  83 NE10      30.11F
DODGE CENTER   CLOUDY    36  34  93 NE16      30.08S
WINONA         CLOUDY    37  34  87 E10       30.14R
AUSTIN         CLOUDY    37  34  87 NE14      30.05S FOG
PRESTON        CLOUDY    36  34  92 NE14G22   30.07S
$$
ABBREVIATIONS USED IN REMARKS
   TC - TEMPERATURES IN CELSIUS
  WCI - WIND CHILL INDEX
   HX - HEAT INDEX
  VSB - VISIBILITY
$$



USA.gov is the U.S. government's official web portal to all federal, state and local government web resources and services.